This is the latest recevied weather packets stored in our database for station/object KI4MRC. If no packets are shown the sender has not sent any weather packets the latest 1 day(s).
| Time | Temp. | Humidity | Pressure | Rain* | Wind** | Luminosity | Snow |
|---|---|---|---|---|---|---|---|
| 1836274662 | 25.56° C | 89% | 1014 hPa | 0 mm | 0 m/s | 0 W/m² | - |
| 1836274515 | 25.56° C | 88% | 1014.2 hPa | 0 mm | 0.89 m/s, 118° | 0 W/m² | - |
| 1836274360 | 25.56° C | 89% | 1014.1 hPa | 0 mm | 0.45 m/s, 142° | 0 W/m² | - |
| 1836274214 | 25.56° C | 89% | 1014.1 hPa | 0 mm | 0.45 m/s, 86° | 0 W/m² | - |
| 1836274058 | 25° C | 90% | 1014.1 hPa | 0 mm | 0.45 m/s, 93° | 0 W/m² | - |
| 1778064109 | 21.11° C | 98% | 1015.6 hPa | 0 mm | 0.89 m/s, 79° | 4 W/m² | - |
| 1778063806 | 21.11° C | 98% | 1015.5 hPa | 0 mm | 0.89 m/s, 70° | 2 W/m² | - |
| 1778063503 | 21.11° C | 98% | 1015.6 hPa | 0 mm | 0.89 m/s, 74° | 1 W/m² | - |
| 1778063201 | 21.11° C | 98% | 1015.6 hPa | 0 mm | 0.89 m/s, 82° | 0 W/m² | - |
| 1778062898 | 21.11° C | 98% | 1015.5 hPa | 0 mm | 0.89 m/s, 63° | 0 W/m² | - |
| 1778062595 | 21.11° C | 98% | 1015.5 hPa | 0 mm | 1.34 m/s, 73° | 0 W/m² | - |
| 1778062291 | 21.11° C | 98% | 1015.7 hPa | 0 mm | 0.89 m/s, 72° | 0 W/m² | - |
| 1778061990 | 21.11° C | 98% | 1015.5 hPa | 0 mm | 0.89 m/s, 67° | 0 W/m² | - |
| 1778061688 | 21.11° C | 98% | 1015.5 hPa | 0 mm | 0.89 m/s, 80° | 0 W/m² | - |
| 1778061386 | 21.11° C | 98% | 1015.4 hPa | 0 mm | 0.89 m/s, 80° | 0 W/m² | - |
| 1778061082 | 21.11° C | 98% | 1015.4 hPa | 0 mm | 0.89 m/s, 86° | 0 W/m² | - |
| 1778060780 | 21.11° C | 98% | 1015.2 hPa | 0 mm | 1.34 m/s, 59° | 0 W/m² | - |
| 1778060477 | 21.11° C | 97% | 1015.3 hPa | 0 mm | 0.45 m/s, 79° | 0 W/m² | - |
| 1778060176 | 21.11° C | 97% | 1015.4 hPa | 0 mm | 0.89 m/s, 81° | 0 W/m² | - |
| 1778059880 | 21.11° C | 97% | 1015.2 hPa | 0 mm | 0.89 m/s, 87° | 0 W/m² | - |
| 1778059571 | 21.67° C | 97% | 1015.1 hPa | 0 mm | 0.89 m/s, 78° | 0 W/m² | - |
| 1778059267 | 21.11° C | 97% | 1015.3 hPa | 0 mm | 1.34 m/s, 78° | 0 W/m² | - |
| 1778058966 | 21.11° C | 97% | 1015.3 hPa | 0 mm | 0.89 m/s, 75° | 0 W/m² | - |
| 1778058663 | 21.67° C | 97% | 1015.1 hPa | 0 mm | 0.89 m/s, 63° | 0 W/m² | - |
| 1778058360 | 21.67° C | 97% | 1015.1 hPa | 0 mm | 1.34 m/s, 71° | 0 W/m² | - |
* Rain latest hour (hover to see other rain measurements)
** Current wind speed in m/s (hover to see current wind gust speed)